www.pogodaiklimat.ru

Погода и климат >> Архив погоды >> Австралия >> Южная Австралия >> Олимпик Дэм


ПОГОДА в Олимпик Дэм

  • Прогноз погоды в Олимпик Дэм
  • Монитор погоды в Олимпик Дэм

АРХИВ ПОГОДЫ в Олимпик Дэм

Время (UTC), дата Ветер
(напр.,м/с)
 
Видим.   Явления Облачность Т
(С)
Тd
(С)
f
(%)
Тe
(С)
Тes
(С)
Комфортность P
(гПа)
Po
(гПа)
Тmin
(С)
Tmax
(С)
R
(мм)
R24
(мм)
S
(см)
22 9.09 штиль 0 н/о н/о +5.8 -4.6 47 +6 +6 1028.9 1017.0
23 9.09 штиль 0 н/о н/о +11.6 -0.9 42 +12 +12 1029.8 1017.8
01 10.09 С 4 н/о н/о +18.9 +0.5 29 +19 +19 1029.6 1017.6
02 10.09 СВ 4 н/о н/о +20.7 -0.6 24 +21 +21 комфорт 1029.0 1017.1
04 10.09 В 2 н/о н/о +22.7 -2.1 19 +21 +21 комфорт 1027.6 1015.7
05 10.09 СЗ 4 н/о н/о +23.6 -2.1 18 +22 +22 комфорт 1026.9 1015.0
07 10.09 СЗ 4 н/о н/о +24.1 -3.3 16 +22 +22 комфорт 1026.2 1014.3
08 10.09 СЗ 3 н/о н/о +23.5 -2.9 17 +22 +22 комфорт 1026.5 1014.6
10 10.09 СВ 3 н/о н/о +17.2 -4.7 22 +17 +17 1027.5 1015.6
11 10.09 С 3 н/о н/о +16.4 -4.2 24 +16 +16 1027.8 1015.9
13 10.09 С 4 н/о н/о +16.2 -4.4 24 +16 +16 1028.2 1016.3
14 10.09 С 3 н/о н/о +14.9 -4.4 26 +15 +15 1028.4 1016.5
16 10.09 В 3 н/о н/о +10.1 -5.0 34 +9 +9 1028.1 1016.2
17 10.09 В 1 н/о н/о +7.1 -7.7 34 +7 +7 1027.8 1015.9
19 10.09 В 2 н/о н/о +5.2 -7.9 38 +3 +3 1027.9 1016.0
20 10.09 СВ 2 н/о н/о +5.1 -7.4 40 +4 +4 1028.5 1016.6
22 10.09 С 3 н/о н/о +11.4 -4.3 33 +10 +10 1029.9 1017.9
23 10.09 С 4 н/о н/о +15.2 -4.2 26 +14 +14 1030.3 1018.3
01 11.09 С 6 н/о н/о +20.8 -4.4 18 +20 +20 1029.9 1017.9
02 11.09 С 6 н/о н/о +22.3 -4.7 16 +21 +21 комфорт 1029.1 1017.2 +4.4
04 11.09 С 5 н/о н/о +24.2 -5.9 13 +22 +22 комфорт 1027.4 1015.5
05 11.09 С 5 н/о н/о +25.1 -6.3 12 +23 +23 комфорт 1026.6 1014.7
07 11.09 С 4 н/о н/о +25.1 -7.4 11 +22 +22 комфорт 1025.6 1013.7
08 11.09 С 4 н/о н/о +24.7 -7.7 11 +22 +22 комфорт 1025.9 1014.0
10 11.09 С 3 н/о н/о +19.7 -6.8 16 +20 +20 1026.2 1014.3
11 11.09 С 4 н/о н/о +18.7 -6.1 18 +19 +19 1027.1 1015.2
13 11.09 С 4 н/о н/о +15.8 -5.8 22 +15 +15 1026.9 1015.0
14 11.09 С 4 н/о н/о +14.7 -5.6 24 +14 +14 1026.8 1014.9 +25.8
16 11.09 С 4 н/о н/о +13.4 -5.2 27 +12 +12 1025.4 1013.5
17 11.09 С 3 н/о н/о +12.3 -5.2 29 +12 +12 1025.1 1013.2
19 11.09 С 4 н/о н/о +12.4 -5.1 29 +11 +11 1024.3 1012.4
20 11.09 С 4 н/о н/о +11.8 -5.2 30 +10 +10 1024.6 1012.7
22 11.09 С 3 н/о н/о +13.3 -4.8 28 +12 +12 1026.8 1014.9
23 11.09 С 5 н/о н/о +17.5 -5.0 21 +17 +17 1027.1 1015.2
01 12.09 С 7 н/о н/о +23.5 -5.5 14 +22 +22 комфорт 1026.4 1014.5
02 12.09 С 7 н/о н/о +25.7 -6.9 11 +23 +23 комфорт 1025.7 1013.8 +10.2
04 12.09 СЗ 6 н/о н/о +28.2 -9.1 8 +25 +25 комфорт 1023.6 1011.7
05 12.09 СЗ 6 н/о н/о +29.0 -10.2 7 +25 +25 комфорт 1022.8 1010.9
07 12.09 СЗ 4 н/о н/о +30.0 -9.5 7 +26 +26 жарко 1022.1 1010.2
08 12.09 СЗ 4 н/о н/о +29.5 -9.9 7 +26 +26 жарко 1022.1 1010.2
10 12.09 С 3 н/о н/о +23.5 -9.8 10 +21 +21 комфорт 1022.7 1010.8
11 12.09 С 3 н/о н/о +20.8 -9.6 12 +20 +20 1023.2 1011.3
13 12.09 С 3 н/о н/о +18.4 -9.5 14 +18 +18 1023.4 1011.5
14 12.09 Ю 2 н/о н/о +14.8 -10.0 17 +15 +15 1023.7 1011.8 +30.5
16 12.09 Ю 3 н/о н/о +12.0 -9.0 22 +11 +11 1023.7 1011.8
17 12.09 штиль 0 н/о н/о +10.4 -11.6 20 +11 +11 1023.2 1011.3
19 12.09 В 1 н/о н/о +11.1 -9.2 23 +12 +12 1022.8 1010.9
20 12.09 штиль 0 н/о н/о +8.7 -10.7 24 +9 +9 1023.4 1011.5
22 12.09 ЮВ 3 н/о н/о +12.7 -8.4 22 +12 +12 1024.9 1013.0
23 12.09 В 3 н/о н/о +19.0 -8.2 15 +19 +19 1025.7 1013.8
01 13.09 В 3 н/о н/о +23.8 -4.4 15 +22 +22 комфорт 1025.5 1013.6
02 13.09 В 2 н/о н/о +27.7 -5.4 11 +25 +25 комфорт 1024.8 1012.9 +8.3
04 13.09 ЮВ 4 н/о н/о +31.1 -4.1 10 +27 +27 жарко 1023.2 1011.3
05 13.09 Ю 6 н/о н/о +31.2 -4.0 10 +28 +28 жарко 1022.8 1010.9
07 13.09 ЮВ 5 н/о н/о +31.1 -5.5 9 +27 +27 жарко 1022.5 1010.6
08 13.09 Ю 6 н/о н/о +30.1 -3.6 11 +27 +27 жарко 1022.7 1010.8
10 13.09 ЮВ 3 н/о н/о +24.9 -1.0 18 +23 +23 комфорт 1024.1 1012.2
11 13.09 ЮВ 5 н/о н/о +24.3 -0.8 19 +23 +23 комфорт 1025.0 1013.1
13 13.09 ЮВ 6 н/о н/о +21.5 -1.1 22 +21 +21 комфорт 1025.5 1013.6
14 13.09 ЮВ 5 н/о н/о +19.8 -2.5 22 +20 +20 1025.5 1013.6 +32.0
16 13.09 Ю 4 н/о н/о +16.6 +1.1 35 +16 +16 1025.2 1013.3
17 13.09 ЮВ 3 н/о н/о +14.9 +1.8 41 +15 +15 1024.9 1013.0
19 13.09 Ю 2 н/о н/о +12.8 +2.4 49 +13 +13 1024.6 1012.7
20 13.09 ЮВ 2 н/о н/о +13.4 +3.8 52 +13 +13 1025.0 1013.1
22 13.09 СВ 2 н/о н/о +17.7 +2.8 37 +18 +18 1026.1 1014.2
23 13.09 СВ 5 н/о н/о +21.2 +1.0 26 +21 +21 комфорт 1026.6 1014.7
01 14.09 СВ 6 н/о н/о +25.5 +0.9 20 +24 +24 комфорт 1026.0 1014.1
02 14.09 СВ 5 н/о н/о +27.0 +0.7 18 +25 +25 комфорт 1025.4 1013.5 +11.5
04 14.09 С 4 н/о н/о +29.4 +0.1 15 +27 +27 жарко 1023.4 1011.5
05 14.09 СВ 4 н/о н/о +30.6 +0.1 14 +28 +28 жарко 1022.7 1010.8
07 14.09 С 2 н/о н/о +30.4 -0.1 14 +27 +27 жарко 1021.7 1009.8
08 14.09 С 2 н/о н/о +29.7 +0.3 15 +27 +27 жарко 1021.8 1009.9
10 14.09 СВ 2 н/о н/о +22.2 -1.8 20 +21 +21 комфорт 1022.5 1010.6
11 14.09 СВ 3 н/о н/о +21.7 -0.9 22 +21 +21 комфорт 1022.6 1010.7
13 14.09 С 4 н/о н/о +21.4 +0.6 25 +21 +21 комфорт 1022.8 1010.9
14 14.09 С 3 н/о н/о +19.3 -0.1 27 +20 +20 1022.8 1010.9 +31.3
16 14.09 С 4 н/о н/о +18.5 -0.3 28 +19 +19 1022.0 1010.1
17 14.09 С 4 н/о н/о +17.6 -1.1 28 +17 +17 1021.0 1009.1
19 14.09 СВ 4 н/о н/о +17.0 -2.6 26 +17 +17 1020.1 1008.3
20 14.09 СВ 4 н/о н/о +16.3 -1.7 29 +16 +16 1020.4 1008.6
22 14.09 С 4 н/о н/о +18.1 -0.2 29 +18 +18 1021.7 1009.8
23 14.09 С 6 н/о н/о +22.8 +1.8 25 +22 +22 комфорт 1021.9 1010.0
01 15.09 С 7 н/о н/о +27.6 -3.3 13 +25 +25 комфорт 1021.5 1009.6
02 15.09 С 8 н/о н/о +28.7 -3.5 12 +26 +26 жарко 1020.8 1009.0 +15.3
04 15.09 С 6 н/о н/о +31.3 -1.5 12 +28 +28 жарко 1018.8 1007.0
05 15.09 С 6 н/о 6/0
[]
+32.2 -3.2 10 +28 +28 жарко 1017.6 1005.8
07 15.09 С 6 н/о н/о +31.7 -3.6 10 +28 +28 жарко 1016.4 1004.6
08 15.09 С 5 н/о 10/0
[]
+31.0 -4.1 10 +27 +27 жарко 1016.4 1004.6
10 15.09 СВ 3 н/о н/о +25.3 -4.1 14 +23 +23 комфорт 1016.6 1004.8
11 15.09 С 4 н/о н/о +25.3 -2.3 16 +23 +23 комфорт 1016.6 1004.8
13 15.09 С 5 н/о н/о +23.8 -2.7 17 +22 +22 комфорт 1016.1 1004.3
14 15.09 С 4 н/о н/о +22.4 -2.3 19 +21 +21 комфорт 1015.9 1004.1 +32.8
16 15.09 С 3 н/о н/о +20.1 -2.9 21 +20 +20 1015.3 1003.5
17 15.09 С 2 н/о н/о +16.0 -4.0 25 +17 +17 1015.3 1003.5
19 15.09 С 2 н/о н/о +17.8 -1.9 26 +18 +18 1015.6 1003.8
20 15.09 СВ 4 н/о 4/0
[]
+17.0 -1.6 28 +17 +17 1015.4 1003.6
22 15.09 Ю 4 н/о н/о +16.4 +1.7 37 +16 +16 1016.4 1004.6
23 15.09 Ю 7 н/о 10/0
[]
+18.3 +3.4 37 +18 +18 1017.8 1006.0
01 16.09 Ю 7 н/о н/о +19.5 +9.4 52 +20 +20 1018.3 1006.5
02 16.09 Ю 6 н/о 9/0
[]
+19.6 +8.6 49 +20 +20 1018.4 1006.6 +15.5
04 16.09 Ю 9 н/о н/о +23.0 +6.3 34 +24 +24 комфорт 1018.3 1006.5
05 16.09 Ю 9 н/о 9/0
[]
+23.6 +7.3 35 +24 +24 комфорт 1018.1 1006.3
07 16.09 Ю 9 н/о н/о +21.9 +5.3 34 +22 +22 комфорт 1018.9 1007.1
08 16.09 Ю 10 н/о 9/0
[]
+19.2 +3.8 36 +19 +19 1020.0 1008.2
10 16.09 Ю 11 н/о н/о +15.7 +5.0 49 +14 +14 1022.1 1010.2
11 16.09 Ю 11 н/о 4/0
[]
+14.7 +3.8 48 +12 +12 1023.2 1011.3
13 16.09 Ю 8 н/о н/о +13.2 +4.6 56 +11 +11 1023.9 1012.0
14 16.09 Ю 7 н/о н/о +12.3 +4.8 60 +10 +10 1023.9 1012.0 +24.3
16 16.09 ЮВ 7 н/о н/о +10.8 +3.4 60 +8 +8 1023.8 1011.9
17 16.09 ЮВ 6 н/о н/о +10.0 +2.8 61 +7 +7 1023.5 1011.6
19 16.09 ЮВ 5 н/о н/о +8.7 +1.6 61 +5 +5 1023.2 1011.3
20 16.09 ЮВ 5 н/о н/о +8.4 +2.2 65 +5 +5 1023.8 1011.9
22 16.09 ЮВ 5 н/о н/о +10.0 +1.4 55 +7 +7 1025.1 1013.2

 

Местоположение метеостанции Олимпик Дэм (Южная Австралия, Австралия): широта -30.48 долгота 136.88 высота над уровнем моря 100 м.

В архиве по умолчанию представлена погода в Олимпик Дэм за последнюю неделю. Архивные данные за месяц целиком и за предыдущие месяцы, начиная с января 2011 года, Вы можете получить, выбрав интересующий диапазон дат из раскрывающегося списка и нажав кнопку "Ввод!".


*Определитесь, кто Вы:
робот инопланетянин человек

Внимание! Время в таблицах - всемирное. Для получения местного времени необходимо прибавить поправку, которая равна 9.5 ч.

Смотрите также архив погоды в соседних городах и на ближайших метеорологических станциях:

Погода на Аэродроме Вумера (Южная Австралия, Австралия) (75 км)
Погода в Марри (Южная Австралия, Австралия) (146 км)
Погода в Ли-Крике (Южная Австралия, Австралия) (148 км)
Погода в Таркуле (Южная Австралия, Австралия) (222 км)
Погода в Порт Огаста (Южная Австралия, Австралия) (240 км)
Погода в Кубер-Педи (Южная Австралия, Австралия) (264 км)
Погода в Уиолле (Южная Австралия, Австралия) (294 км)
Погода в Миннипа Пирса (Южная Австралия, Австралия) (310 км)
Погода в Уудинне (Южная Австралия, Австралия) (316 км)
Погода в Юнте (Южная Австралия, Австралия) (345 км)

Пояснения к столбцам:

Ветер - указаны скорость ветра в м/с - средняя за 10 мин, порывы в срок и между сроками (в фигурных скобках) и направление, откуда дует ветер: С - северный, СВ - северо-восточный, В - восточный, ЮВ - юго-восточный, Ю - южный, ЮЗ - юго-западный, З - западный, СЗ - северо-западный.
Видимость - горизонтальная дальность видимости в метрах или километрах. При видимости от 1 до 10 км при отсутствии осадков обычно наблюдается дымка, при ухудшении видимости до 1 км и менее - туман. В сухую погоду видимость может ухудшаться дымом, пылью или мглою.
Явления - указаны атмосферные явления, наблюдавшиеся в срок или в последний час перед сроком; фигурными скобками обозначены явления, наблюдавшиеся между сроками (за 1-3 часа до срока); квадратными скобками обозначены град или гололедные отложения с указанием их диаметра в мм.
Облачность - указаны через наклонную черту общая и нижняя облачность в баллах и высота нижней границы облаков в метрах; квадратными скобками обозначены формы облаков: Ci - перистые, Cs - перисто-слоистые, Cc - перисто-кучевые, Ac - высококучевые, As - высокослоистые, Sc - слоисто-кучевые, Ns - слоисто-дождевые, Cu - кучевые, Cb - кучево-дождевые. Подробнее классификацию облаков см. в Атласе облаков (PDF).
T - Температура воздуха - температура, измеренная на высоте 2 м над землей.
Td - Температура точки росы - температура, при понижении до которой содержащийся в воздухе водяной пар достигнет насыщения.
f - Относительная влажность воздуха - влажноcть воздуха, измеренная на высоте 2 м над землей.
Te - Эффективная температура - температура, которую ощущает одетый по сезону человек в тени. Характеристика душности погоды. При расчете учитывается влияние влажности воздуха и скорости ветра на теплоощущения человека.
Tes - Эффективная температура на солнце - температура, которую ощущает человек, с поправкой на солнечный нагрев. Характеристика знойности погоды. Зависит от высоты солнца над горизонтом, облачности и скорости ветра. Ночью, в пасмурную погоду, а также при ветре 12 м/с и более поправка равна нулю.
P - Атмосферное давление - приведенное к уровню моря атмосферное давление.
Po - Атмосферное давление - измеренное на уровне метеостанции атмосферное давление.
Tmin - Минимальная температура - минимум температуры воздуха на высоте 2 м над землей.
Tmax - Максимальная температура - максимум температуры воздуха на высоте 2 м над землей.
R - Количество осадков - Количество выпавших осадков за период времени, мм. При наведении курсора мыши на число - период времени, за который выпало указанное количество осадков.
R24 - Количество осадков - Количество выпавших осадков за 24 часа, мм.
S - Снежный покров - Высота снежного покрова, см. При наведении курсора мыши на число - состояние снежного покрова и степень покрытия местности в баллах.